North Adams, MA

2:49 PM EDT on April 29, 2017 (GMT -0400)
Harriman And West

Weather History for KAQW - March, 2014

Change the Weather History Date:

Sunday, March 23, 2014

  Actual Average Record
Temperature  
Mean Temperature 26 °F -  
Max Temperature 34 °F 42 °F 71 °F (2012)
Min Temperature 18 °F 25 °F 12 °F (2015)
Degree Days  
Heating Degree Days 38    
Moisture  
Dew Point 12 °F    
Average Humidity 50    
Maximum Humidity 66    
Minimum Humidity 39    
Precipitation  
Precipitation 0.00 in - - ()
Sea Level Pressure  
Sea Level Pressure 30.03 in    
Wind  
Wind Speed 11 mph (West)    
Max Wind Speed 17 mph    
Max Gust Speed 29 mph    
Visibility 10 miles    
Events      
Averages and records for this station are not official NWS values.
T = Trace of Precipitation, MM = Missing Value Source: NWS Daily Summary

Daily Weather History Graph

Daily Weather History Graph

Search for Another Location

Airport or City:

Trip Planner

Search our weather history database for the weather conditions in past years. The results will help you decide how hot, cold, wet, or windy it might be!

Date:

Astronomy

Mar. 23, 2014 Rise Set
Actual Time 6:50 AM EDT 7:08 PM EDT
Civil Twilight 6:22 AM EDT 7:36 PM EDT
Nautical Twilight 5:49 AM EDT 8:09 PM EDT
Astronomical Twilight 5:15 AM EDT 8:43 PM EDT
Moon 1:29 AM EDT (3/23) 11:22 AM EDT (3/23)
Length of Visible Light 13h 14m
Length of Day
12h 17m
Waning Gibbous, 55% of the Moon is Illuminated
Mar 23
Waning Gibbous
Mar 23
Last Quarter
Mar 30
New
Apr 7
First Quarter
Apr 15
Full

Hourly Weather History & Observations

Time (EDT) Temp. Windchill Dew Point Humidity Pressure Visibility Wind Dir Wind Speed Gust Speed Precip Events Conditions
12:52 AM 34.0 °F 26.0 °F 23.0 °F 64% 29.99 in 10.0 mi West 10.4 mph 19.6 mph N/A   Overcast
1:52 AM 33.1 °F 24.4 °F 23.0 °F 66% 30.00 in 10.0 mi West 11.5 mph - N/A   Overcast
2:52 AM 33.1 °F 25.5 °F 21.9 °F 64% 29.97 in 10.0 mi West 9.2 mph 18.4 mph N/A   Mostly Cloudy
3:52 AM 32.0 °F 26.4 °F 21.9 °F 66% 29.97 in 10.0 mi West 5.8 mph - N/A   Mostly Cloudy
4:52 AM 32.0 °F 25.6 °F 21.9 °F 66% 29.98 in 10.0 mi West 6.9 mph - N/A   Overcast
5:52 AM 32.0 °F 25.6 °F 21.0 °F 64% 29.98 in 10.0 mi West 6.9 mph - N/A   Mostly Cloudy
6:52 AM 32.0 °F 20.8 °F 19.0 °F 59% 29.99 in 10.0 mi West 17.3 mph 28.8 mph N/A   Partly Cloudy
7:52 AM 30.0 °F 19.5 °F 12.0 °F 47% 30.02 in 10.0 mi WNW 13.8 mph 20.7 mph N/A   Clear
8:52 AM 28.0 °F 17.5 °F 14.0 °F 56% 30.04 in 10.0 mi West 12.7 mph - N/A   Partly Cloudy
9:52 AM 30.0 °F 20.0 °F 12.9 °F 49% 30.05 in 10.0 mi West 12.7 mph 23.0 mph N/A   Partly Cloudy
10:52 AM 30.9 °F 22.2 °F 12.9 °F 47% 30.06 in 10.0 mi WNW 10.4 mph 18.4 mph N/A   Clear
11:52 AM 30.9 °F 22.2 °F 12.0 °F 46% 30.05 in 10.0 mi WNW 10.4 mph 20.7 mph N/A   Mostly Cloudy
12:52 PM 33.1 °F 23.9 °F 12.0 °F 42% 30.04 in 10.0 mi West 12.7 mph 19.6 mph N/A   Overcast
1:52 PM 30.9 °F 22.8 °F 10.9 °F 43% 30.03 in 10.0 mi NW 9.2 mph 19.6 mph N/A   Overcast
2:52 PM 30.9 °F 20.7 °F 10.0 °F 42% 30.02 in 10.0 mi SW 13.8 mph 21.9 mph N/A   Mostly Cloudy
3:52 PM 30.9 °F 20.7 °F 9.0 °F 40% 30.01 in 10.0 mi West 13.8 mph 20.7 mph N/A   Clear
4:52 PM 30.0 °F 20.0 °F 8.1 °F 40% 30.01 in 10.0 mi West 12.7 mph 20.7 mph N/A   Partly Cloudy
5:52 PM 28.9 °F 19.8 °F 7.0 °F 40% 30.01 in 10.0 mi West 10.4 mph - N/A   Clear
6:52 PM 27.0 °F 16.1 °F 5.0 °F 39% 30.03 in 10.0 mi West 12.7 mph 20.7 mph N/A   Clear
7:52 PM 25.0 °F 12.6 °F 5.0 °F 43% 30.05 in 10.0 mi West 15.0 mph 25.3 mph N/A   Scattered Clouds
8:52 PM 23.0 °F 10.6 °F 6.1 °F 48% 30.09 in 10.0 mi West 13.8 mph 20.7 mph N/A   Overcast
9:52 PM 21.9 °F 9.8 °F 6.1 °F 51% 30.10 in 10.0 mi West 12.7 mph 21.9 mph N/A   Partly Cloudy
10:52 PM 19.9 °F 9.3 °F -0.0 °F 42% 30.13 in 10.0 mi WNW 9.2 mph 18.4 mph N/A   Clear
11:52 PM 18.0 °F 11.1 °F -0.9 °F 44% 30.17 in 10.0 mi Variable 4.6 mph - N/A   Clear